Regional Weather Roundup
Issued by NWS Albany, NY

Home | Current Version | Previous Version | Text Only | Print | Product List | Glossary On
Versions: 1 2 3 4 5 6 7 8 9 10 11 12 13 14 15 16 17 18 19 20 21 22 23 24 25 26 27 28 29 30 31 32 33 34 35 36 37 38 39 40 41 42 43 44 45 46 47 48 49 50
000
ASUS41 KALY 231210
RWRALY

NEW YORK STATE HOURLY WEATHER ROUNDUP
NATIONAL WEATHER SERVICE ALBANY NY
800 AM EDT WED AUG 23 2017

NOTE: "FAIR" INDICATES FEW OR NO CLOUDS BELOW 12,000 FEET WITH NO
SIGNIFICANT WEATHER AND/OR NO OBSTRUCTIONS TO VISIBILITY.

NYZ032-033-038>043-046>054-057>066-NYZ062>081-082-084-231300-
EAST


CITY           SKY/WX    TMP DP  RH WIND       PRES   REMARKS
ALBANY         PTSUNNY   65  55  70 W3        29.82R
GLENS FALLS    MOSUNNY   65  53  65 S6        29.79R
POUGHKEEPSIE   CLOUDY    71  67  87 CALM      29.79R
NEWBURGH       MOSUNNY   68  64  88 W13       29.82R
MONTGOMERY     MOSUNNY   69  61  75 CALM      29.83R
WHITE PLAINS   PTSUNNY   73  65  75 W13G20    29.79R
ISLIP          CLOUDY    74  73  97 W7        29.78R
NEW YORK CITY  CLOUDY    75  70  84 NW14      29.79R
CENTRAL PARK   CLOUDY    74  70  87 VRB3      29.83R
$$

NYZ005>009-017-018-044>046-055-056-231300-
CENTRAL


CITY           SKY/WX    TMP DP  RH WIND       PRES   REMARKS
FULTON         MOSUNNY   62  56  80 SW8       29.83R
SYRACUSE       MOSUNNY   63  56  78 W10       29.83R
ROME           PTSUNNY   62  57  83 W3        29.83R
ELMIRA         CLOUDY    58  33  39 W3        29.88S
BINGHAMTON     SUNNY     57  53  86 W7        29.88R
MONTICELLO     SUNNY     62  56  80 NW8       29.88R
$$

NYZ026>034-041>043-087-231300-
NORTH


CITY           SKY/WX    TMP DP  RH WIND       PRES   REMARKS
WATERTOWN      SUNNY     65  56  72 W10G21    29.79S
FORT DRUM      NOT AVBL
OGDENSBURG     FAIR      63  56  78 SW10G16   29.76R
MASSENA        SUNNY     62  56  80 SW15G21   29.75R
SARANAC LAKE   CLOUDY    56  53  90 W13G23    29.78R
PLATTSBURGH    SUNNY     66  53  63 VRB7G18   29.72R
$$

NYZ001>004-010>016-019>021-085-231300-
WEST


CITY           SKY/WX    TMP DP  RH WIND       PRES   REMARKS
NIAGARA FALLS  SUNNY     63  53  70 W9        29.86S
BUFFALO        MOSUNNY   62  53  72 W8        29.87S
DUNKIRK        MOSUNNY   65  55  70 W7        29.89S
JAMESTOWN      SUNNY     59  54  82 W6        29.93S
WELLSVILLE     MOSUNNY   59  55  87 W8        29.93S
ROCHESTER      MOSUNNY   61  56  83 W9        29.86R
PENN YAN       MOSUNNY   62  54  74 S7        29.88R
$$

             KEY
       WCI = WIND CHILL INDEX
       VSB = VISIBILITY
       HX  = HEAT INDEX
$$



USA.gov is the U.S. government's official web portal to all federal, state and local government web resources and services.